{"data":{"norad_id":63972,"intl_designator":"2025-099W","name":"STARLINK-34115","alt_names":[],"object_type":"PAYLOAD","status":"ACTIVE","operator":null,"country":"US","launch_date":"2025-05-13","launch_site_code":"AFETR","launch_vehicle":null,"mission":null,"orbit_class":"UNKNOWN","rcs_meters":null,"size_class":null,"mass_kg":null,"dimensions":null,"purposes":["comms"],"wikipedia_slug":null,"has_3d_model":false,"image_url":null,"decayed_at":null,"tle_current":{"epoch":"2026-05-25T03:53:19.250304Z","epoch_age_seconds":51275,"freshness":"FRESH","line1":"1 63972U 25099W   26145.16202836  .00019380  00000+0  71163-3 0  9999","line2":"2 63972  42.9979 100.7129 0000669 238.2725 121.8062 15.27593250 59079","mean_motion":15.2759325,"eccentricity":6.69e-5,"inclination_deg":42.9979,"raan_deg":100.7129,"arg_perigee_deg":238.2725,"mean_anomaly_deg":121.8062,"bstar":0.00071163,"rev_number":5907,"period_min":94.265931065092,"perigee_km":482.5504103642,"apogee_km":483.46843175534,"semimajor_km":6861.1464210598,"source":"CELESTRAK","updated_at":"2026-05-25T13:38:20.215306Z"}}}